Regional Weather Roundup
Issued by NWS

Home | Current Version | Previous Version | Text Only | Print | Product List | Glossary On
Versions: 1 2 3 4 5 6 7 8 9 10 11 12 13 14 15 16 17 18 19 20 21 22 23 24 25 26 27 28 29 30 31 32 33 34 35 36 37 38 39 40 41 42 43 44 45 46 47 48 49 50
000
ASUS45 KTFX 010919
RWRMT
MONTANA HOURLY WEATHER ROUNDUP
NATIONAL WEATHER SERVICE GREAT FALLS MT
219 AM MST SUN MAR 1 2015

NOTE: "FAIR" INDICATES FEW OR NO CLOUDS BELOW 12000 FEET WITH NO
SIGNIFICANT WEATHER AND/OR OBSTRUCTIONS TO VISIBILITY.

* THESE STATIONS ARE NOT UNDER NWS QUALITY CONTROL. THEY DO NOT
   REPORT WEATHER SUCH AS PRECIPITATION OR FOG.

MTZ001>007-043-011000-
WEST OF THE DIVIDE
CITY           SKY/WX    TMP DP  RH WIND       PRES   REMARKS
KALISPELL      CLEAR     12   7  80 CALM      30.26R
MISSOULA       CLEAR     18   9  68 NW3       30.27R
BUTTE          CLEAR      3  -2  79 SE5       30.20R WCI  -7
MULLAN PASS    CLEAR     16  -4  40 SE10      30.09R WCI   4
* ANACONDA     CLEAR      3  -2  79 S5         N/A   WCI  -7
* ESSEX        N/A       11   3  70 SE4        N/A
* EUREKA APT   CLEAR     16   5  62 CALM      30.28R
* HAMILTON APT CLEAR     18   9  68 S10       30.25R WCI   6
* LIBBY APT    CLEAR     16   7  67 CALM      30.28R
* LINCOLN      N/A      N/A N/A N/A NW1        N/A
* LOOKOUT PASS N/A       12   1  61 NW1        N/A
* POLSON       N/A       17   2  51 N/A        N/A
* RONAN APT    CLEAR     18   9  68 N/A        N/A
* SEELEY LAKE  N/A      N/A N/A N/A N1         N/A
* THOMP F APT  CLEAR     12   0  58 N16G27     N/A   WCI  -5
$$

MTZ008-052>055-011000-
SOUTHWEST MONTANA
CITY           SKY/WX    TMP DP  RH WIND       PRES   REMARKS
BOZEMAN        CLEAR      9   3  76 S5        30.25R
DILLON         CLEAR      9   0  66 S6        30.19R WCI  -1
* W YELLOWSTON PTCLDY    -5 -12  71 N/A        N/A
* THREE FORKS  CLEAR      9   0  66 N/A        N/A
* BOULDER HILL N/A        5  -6  60 S7         N/A   WCI  -7
* MONIDA PASS  N/A        7   2  80 W12        N/A   WCI  -9
* RAYNOLDS PAS N/A        4 -33  15 N12        N/A   WCI -12
* WHITEHALL    N/A        8  -4  58 NW2G7      N/A
* WISE RIVER   N/A        5  -4  66 S1         N/A
$$

MTZ009>010-012-014-046-048-049-054-011000-
EAST SLOPES AND CENTRAL MONTANA
CITY           SKY/WX    TMP DP  RH WIND       PRES   REMARKS
CUT BANK       CLOUDY    12   9  88 CALM      30.21S
GREAT FALLS    MOCLDY    16   9  74 SW8       30.25R WCI   5
HELENA         CLEAR     12   1  61 CALM      30.27R
MALMSTROM AFB  PTCLDY    14   9  80 SW9       30.27R WCI   2
* CONRAD       CLEAR     16  10  77 CALM       N/A
* EAST GLACIER N/A        5   1  83 NW7        N/A   WCI  -7
* MONARCH      N/A       11   4  73 NW9        N/A   WCI  -2
* PENDROY      N/A       15  11  84 NW8        N/A   WCI   4
* ROGERS PASS  N/A        7   2  80 NW3        N/A
* SWEET GRASS  N/A       19  18  96 NW8        N/A   WCI   9
* WHITE SULPH  N/A        3  -3  76 SE3        N/A
$$

MTZ011-013-016-021-035-040-045-047-050-051-011000-
NORTH CENTRAL MONTANA
CITY           SKY/WX    TMP DP  RH WIND       PRES   REMARKS
HAVRE          PTCLDY    14  10  84 NW13      30.25R
LEWISTOWN      CLOUDY    18   9  68 W17       30.17S WCI   3
* N BAR RANCH  HAZE      14   9  80 W9G15     30.14R WCI   2
* CHINOOK      CLEAR     16  10  77 W8        30.25R WCI   5
* FORT BENTON  CLEAR     16   9  74 W9        30.29R WCI   5
* CHESTER      N/A       16  10  77 NW7        N/A   WCI   6
* DENTON       N/A       16   9  74 W14G19     N/A   WCI   2
* GEYSER       N/A       16   8  71 W16G23     N/A   WCI   1
* JUDITH GAP   N/A       10   4  76 NW4        N/A
* LOMA         N/A       18  11  74 W9         N/A   WCI   7
$$

MTZ017>020-022>027-061-062-011000-
NORTHEAST MONTANA
CITY           SKY/WX    TMP DP  RH WIND       PRES   REMARKS
GLASGOW        CLOUDY    18  14  84 NW10      30.18R WCI   6
GLENDIVE       CLOUDY    16  10  77 W10       30.17S WCI   4
JORDAN         CLEAR     16  10  77 W6        30.18R WCI   7
SIDNEY         PTCLDY    18  10  71 W10       30.18F WCI   6
WOLF POINT     FOG       18  14  84 W10       30.18S VSB 3    WCI   6
* BEAVER HILL  N/A       13   9  84 SW13G18    N/A   WCI  -2
* CIRCLE       N/A       18  14  84 SW2        N/A
* LINDSAY DVD  N/A       14  10  84 W17        N/A   WCI  -2
* NAVAJO       N/A       15  11  84 NW12       N/A   WCI   1
* PLENTYWOOD A PTCLDY    12  10  92 W9        30.11R
* POPLAR APT   PTCLDY    18  16  92 W8        30.18S WCI   8
* SACO         N/A       17  14  88 W8         N/A   WCI   7
* SCOBEY APT   PTCLDY    16   3  56 W5         N/A   WCI   8
$$

MTZ028>042-056>058-011000-
SOUTHCENTRAL AND SOUTHEAST MONTANA
CITY           SKY/WX    TMP DP  RH WIND       PRES   REMARKS
BAKER          MOCLDY    14   9  80 W10       30.15S WCI   1
BILLINGS       CLEAR     14   5  67 SW10      30.20S WCI   1
LIVINGSTON     PTCLDY     9   0  66 NW8       30.21R WCI  -3
MILES CITY     MOCLDY    12   7  80 W8        30.21R
* BIG TIMBER A PTCLDY    16   1  51 SW14      30.18R WCI   2
* FORSYTH APT  CLEAR     18   7  62 SW3       30.22S
* LAUREL APT   CLEAR     10  -2  58 N/A        N/A
* ROUNDUP APT  CLEAR      9  -2  61 N/A        N/A
* ALZADA       N/A        9   5  84 SW7        N/A   WCI  -2
* HYSHAM       N/A       15   6  67 SW4        N/A
* LAME DEER    N/A        9   6  87 SW6        N/A   WCI  -1
* REED POINT   N/A        7   4  87 N/A        N/A
$$

REGIONAL REPORTS...DAKOTAS
CITY           SKY/WX    TMP DP  RH WIND       PRES   REMARKS
WILLISTON      CLOUDY    10   5  80 SW3       30.14S
DICKINSON      PTCLDY    10   3  73 W12       30.10F WCI  -5
BEACH          LGT SNOW  14  12  92 W13       30.14F
CROSBY         LGT SNOW  14  10  84 W12       30.12R
TIOGA          LGT SNOW  10  10 100 W10       30.11F WCI  -4
WATFORD CITY   CLOUDY    12   7  80 SW7       30.12S WCI   1
BISMARCK       PTCLDY     3   0  87 SW7       30.19S WCI  -9
GRAND FORKS    PTCLDY     1  -2  87 W7        30.16S WCI -12
FARGO          CLEAR      1  -4  79 SW6       30.21F WCI -11
BUFFALO SD     PTCLDY     9   5  84 W7        30.08S WCI  -2
RAPID CITY     CLOUDY    14  10  84 SW6       30.19S WCI   5
$$

REGIONAL REPORTS...WYOMING/IDAHO/WASHINGTON
CITY           SKY/WX    TMP DP  RH WIND       PRES   REMARKS
GILLETTE       PTCLDY     9   5  84 CALM      30.13S
SHERIDAN       CLEAR      3  -2  79 CALM      30.15S
CODY           CLOUDY    10   7  88 S5        30.13R WCI   1
YELLOWSTONE LA PTCLDY   -11 -17  74 NW3       30.04R
SALMON         PTCLDY    18  10  71 N6        30.20R WCI  10
MULLAN PASS    CLEAR     16  -4  40 SE10      30.09S WCI   4
SAND POINT     CLEAR     19  14  81 CALM      30.26R
SPOKANE        FAIR      23  12  63 CALM      30.22R
$$

REGIONAL REPORTS...ALBERTA
CITY           SKY/WX    TMP DP  RH WIND       PRES   REMARKS
CALGARY        N/A       14   7  73 CALM      30.19S
LETHBRIDGE     PTCLDY    14  10  84 SW8       30.24S WCI   3
MEDICINE HAT   CLEAR     10   9  96 SW6       30.26R
EDMONTON       FAIR       7   1  76 S5        30.21S WCI  -2
WATERTON GATE  N/A       10   5  80 S9         N/A   WCI  -3
CARDSTON       N/A        9   5  84 SW5        N/A
$$

REGIONAL REPORTS...SASKATCHEWAN
CITY           SKY/WX    TMP DP  RH WIND       PRES   REMARKS
SWIFT CURRENT  LGT SNOW  14  12  92 NW10      30.13R WCI   1
REGINA         N/A        3   1  91 NW6       30.12R WCI  -8
VAL MARIE      N/A       14  10  84 NW6        N/A   WCI   5
ASSINIBOIA     N/A       14  10  84 NW15       N/A   WCI  -1
CORONACH       N/A       10   7  88 NW7        N/A   WCI  -1

$$



USA.gov is the U.S. government's official web portal to all federal, state and local government web resources and services.